STARLINK-1327, 45555

Orbit data source: Space-Track

STARLINK-1327, 45555 is a payload satellite owned by SpaceX/Seattle (US) in LEO that was launched on Wed, 22 Apr 2020 UTC via an FALCON 9 launch vehicle from the Air Force Eastern Test Range (AFETR). Payload-class satellites include a variety of spacecraft equipped with specific instruments for various scientific and technological missions. These include communications satellites like Starlink; space stations such as the ISS; scientific satellites like the Hubble; Earth observation satellites from companies like Planet Labs, Umbra, and HawkEye 360; GPS; miniature CubeSats for education and research; and military/defense satellites.

Loading next visibility...
Identifier
45555, 2020-025AA
Orbit
LEO
Last TLE update
8 hours ago
Origin
Manufacturer
SpaceX/Seattle
Mission
Operational Commercial Communications
Bus & Motor
STARLINK, Unknown motor
Mass
260 kg wet, ~248 kg dry
Launch date (UTC)
2020-04-22 (5 years ago)
Launch vehicle
FALCON 9
Launch site
Air Force Eastern Test Range (AFETR)
Object type
Payload
Rocket body
Debris
Shape & HBR
Box + 1 Pan, 8.86 m
Radar Cross Section
13.562 m², Large (>1 m²)

Expand to show TLE details & history

TLE from 8 hours ago
0 STARLINK-1327
1 45555U 20025AA  25182.08247150 -.00000328  00000-0 -31481-5 0  9995
2 45555  53.0531 136.1266 0001384  88.0319 272.0829 15.06399399286845
Epoch: 2025-07-01T01:58Z
TLE epoch observation values (Epoch: 2025-07-01T01:58:45.537Z)
Latitude
0.00002°
Longitude
-172.94616°
Altitude
548.058 km
Speed
7.589 km/s
True Right ascension
09h 04m 30s
True Declination
0° 00' 00"
Sunlit
Object was in daylight at epoch
Visualization orbit readout
Latitude
27.08176°
Longitude
-151.97824°
Altitude
547.9 km
Speed
7.592 km/s
Apparent Right ascension
10h 08m 45s
Apparent Declination
-4° 51' 04"
Sunlit
Object is in daylight
Visualization observer readout
Local Sidereal Time
21:44:00
Azimuth
349.347° N
Elevation
-54.494°
Doppler factor
1
Orbital elements
Apogee altitude
548.443 km
Perigee altitude
546.526 km
Semi-major axis
6,925.621 km
Eccentricity
0.00014
Inclination
53.0531°
RAAN
136.1266°
Arg. of periapsis
88.0319°
True anomaly
Unknown
Mean anomaly
272.0829°
Eccentric anomaly
Unknown
Mean motion
3.76578 °/min
Orbital period
95.6 mins
BSTAR
-0.0000031481
Loading maneuver chart data...
Loading SW <> Apogee altitude chart data...
Loading historical data...
Loading historical data...
Loading historical data...
Loading historical data...
Loading historical data...
Loading historical data...
Loading historical data...

STARLINK-1327 Visibility forecast

Observer location: undefined°, undefined°

Span
Click to sort rows by Start time (UTC) header in descending order
Start Az.
Max El. time (UTC)
Max El. Az.
Max El.
End time (UTC)
End Az.
7 mins2025-07-01 22:49:36.933Z193.768° SSW2025-07-01 22:52:36.933Z145.116° SSE27.5°2025-07-01 22:56:36.933Z68.574° E
5 mins2025-07-02 00:30:36.933Z276.412° WNW2025-07-02 00:32:36.933Z332.634° NNW31.692°2025-07-02 00:35:36.933Z33.501° NE
6 mins2025-07-02 05:31:36.933Z330.267° NNW2025-07-02 05:34:36.933Z41.284° NE30.753°2025-07-02 05:37:36.933Z96.583° ESE
5 mins2025-07-02 07:11:36.933Z279.925° WNW2025-07-02 07:13:36.933Z234.669° WSW28.901°2025-07-02 07:16:36.933Z169.765° S
|